Content
SEND FEEDBACK

Daily
Averages
Monthly
Summary
United States of America

YIGO, GUAM


Home > North America > United States > Guam
Elevation: 530 feet     Latitude: 13 32N     Longitude: 144 53E

WEATHER
 
SELECT A DAY
Number of Records: 209,106;   Date Range: 1/1/95 - 8/12/14
 
SHARE

PRINT THIS DATA

[ ← Previous Day ]
WEATHER ALMANAC - FEBRUARY 13, 2013
[ Next Day → ]
[ °C ]   °F
Weather ElementAverageHighLow
Temperature73.5 °F82.4 °F (2:21 pm) (10:20 pm)
Dewpoint70.3 °F77 °F (3:04 pm) (7:00 pm)
Humidity89.8 %100 % (3:04 pm)74 % (2:21 pm)
Barometer29.89 in29.94 in (9:54 am)29.85 in (3:54 pm)
Wind Speed14.7 mph20.7 mph (4:54 pm)
Wind Gust26.5 mph (10:45 pm)
Weather ElementAverage
Visibility8.7 mi
Wind DirectionENE (80.3 °)

Weather ElementTotal
Precipitation0.46 in
Heating Degree Days23.8 (Base 65)
Averaged from 37 records on February 13, 2013
WEATHER CONDITIONS BREAKOUT
WIND DIRECTION BREAKOUT
WEATHER BY HOUR - FEBRUARY 13, 2013
[ °C ]   °F
Local TimeTemperatureDewpointHumidityBarometerVisibilityWind DirectionWind SpeedGust SpeedPrecipitationEventsConditions
1:54 AM77.0 °F73.0 °F88 %29.89 in10.0 miENE (70°)17.3 mph21.9 mphScattered Clouds
2:54 AM77.0 °F73.0 °F88 %29.87 in10.0 miENE (70°)17.3 mph25.3 mphMostly Cloudy
3:54 AM75.0 °F73.9 °F96 %29.86 in10.0 miENE (70°)17.3 mph23.0 mph0.02 inOvercast
4:54 AM75.9 °F73.0 °F91 %29.87 in10.0 miEast (80°)17.3 mph25.3 mphMostly Cloudy
5:54 AM75.9 °F73.9 °F94 %29.88 in10.0 miEast (80°)16.1 mph21.9 mphScattered Clouds
6:54 AM75.0 °F73.9 °F96 %29.89 in10.0 miEast (80°)15.0 mph23.0 mph0.01 inRainLight Rain
7:54 AM77.0 °F73.0 °F88 %29.91 in10.0 miEast (80°)15.0 mph24.2 mph0.00 inPartly Cloudy
8:09 AM77.0 °F73.4 °F89 %29.93 in10.0 miEast (90°)13.8 mphPartly Cloudy
8:54 AM79.0 °F72.0 °F79 %29.92 in10.0 miEast (90°)15.0 mph23.0 mphPartly Cloudy
9:54 AM78.1 °F73.9 °F87 %29.94 in6.0 miEast (90°)18.4 mph21.9 mphMostly Cloudy
10:54 AM79.0 °F75.9 °F90 %29.92 in10.0 miEast (80°)15.0 mph0.05 inPartly Cloudy
11:43 AM77.0 °F75.2 °F94 %29.93 in1.8 miESE (110°)11.5 mph19.6 mph0.01 inRainHeavy Rain
11:52 AM77.0 °F75.2 °F94 %29.93 in5.0 miEast (100°)12.7 mph17.3 mph0.07 inRainLight Rain
11:54 AM77.0 °F75.9 °F96 %29.91 in5.0 miESE (110°)10.4 mph0.07 inRainLight Rain
12:54 PM80.1 °F75.9 °F87 %29.88 in10.0 miEast (80°)15.0 mph23.0 mph0.00 inScattered Clouds
1:54 PM80.1 °F73.9 °F81 %29.86 in10.0 miENE (70°)16.1 mphMostly Cloudy
2:06 PM80.6 °F73.4 °F79 %29.88 in10.0 miEast (80°)17.3 mphMostly Cloudy
2:21 PM82.4 °F73.4 °F74 %29.88 in10.0 miENE (70°)17.3 mph25.3 mphMostly Cloudy
2:28 PM82.4 °F73.4 °F74 %29.88 in10.0 miENE (70°)18.4 mph25.3 mphScattered Clouds
2:35 PM80.6 °F73.4 °F79 %29.87 in10.0 miENE (70°)12.7 mph24.2 mphMostly Cloudy
2:46 PM82.4 °F73.4 °F74 %29.87 in10.0 miENE (70°)18.4 mph25.3 mphMostly Cloudy
2:54 PM77.0 °F75.0 °F94 %29.86 in4.0 miEast (100°)12.7 mph24.2 mph0.00 inRainRain
3:04 PM77.0 °F77.0 °F100 %29.87 in10.0 miEast (90°)11.5 mph0.00 inRainLight Rain
3:54 PM79.0 °F75.9 °F90 %29.85 in9.0 miEast (80°)11.5 mph0.00 inRainLight Rain
4:54 PM79.0 °F73.0 °F82 %29.85 in10.0 miENE (70°)20.7 mph25.3 mph0.00 inPartly Cloudy
5:54 PM78.1 °F75.0 °F90 %29.86 in6.0 miENE (70°)16.1 mph23.0 mph0.00 inRainLight Rain
6:11 PM75.2 °F75.2 °F100 %29.88 in8.0 miEast (80°)11.5 mph0.00 inOvercast
6:28 PM75.2 °F75.2 °F100 %29.88 in10.0 miEast (90°)8.1 mph0.02 inMostly Cloudy
6:54 PM75.9 °F75.9 °F100 %29.86 in10.0 miENE (70°)12.7 mph0.03 inMostly Cloudy
7:54 PM73.9 °F73.9 °F100 %29.88 in5.0 miENE (70°)15.0 mph0.04 inRainLight Rain
8:54 PM78.1 °F73.9 °F87 %29.90 in10.0 miENE (70°)13.8 mph0.02 inPartly Cloudy
9:54 PM78.1 °F75.0 °F90 %29.91 in10.0 miENE (70°)17.3 mph0.00 inMostly Cloudy
10:20 PM0.0 °F0.0 °F29.93 in10.0 miEast (80°)11.5 mphOvercast
10:30 PM0.0 °F0.0 °F29.93 in10.0 miEast (80°)15.0 mphOvercast
10:45 PM75.2 °F75.2 °F100 %29.93 in3.0 miEast (90°)11.5 mph26.5 mph0.05 inRainLight Rain
10:54 PM75.7 °F75.0 °F98 %29.91 in9.0 miENE (60°)15.0 mph0.05 inRainLight Rain
11:54 PM75.9 °F73.9 °F94 %29.91 in10.0 miEast (90°)11.5 mph21.9 mph0.02 inRainLight Rain
Hourly data recorded from PGUM, located miles away from Yigo, Guam







STORIES FROM OUR PARTNERS